[[{"header":{"parameterUnit":"m.s-1","parameterCategory":1,"la1":30.2991,"la2":30.254,"lo1":-89.0895,"lo2":-89.0444,"dy":0.0017,"dx":0.0017,"nx":28,"ny":28,"refTime":"2023-09-07T21:00:00:Z","depth":0,"parameterNumber":2,"parameterNumberName":"U-component_of_WINDS"},"data":[0,0,0,0,0,0,0,0,0,0,0,0,0,0,0,0,0,0,0,0,0,0,0,0,0,0,0,0,0,0,0,0,0,0,0,0,0,0,0,0,0,0,0,0,0,0,0,0,0,0,0,0,0,0,0,0,0,0,2.1692,2.1694,0,2.1857,2.1859,2.1861,2.1876,2.1874,2.1872,2.1871,2.205,2.2056,2.2063,0,0,0,0,0,0,0,0,0,0,0,0,0,2.1401,2.1406,2.1692,2.1694,2.1696,2.1857,2.1859,2.1862,2.1876,2.1874,2.1872,2.187,2.2048,2.2056,2.2063,0,0,0,0,0,0,0,0,0,0,0,0,0,2.1543,2.1408,2.1691,2.1722,2.1727,2.1857,2.1859,2.1862,2.1877,2.1874,2.1871,2.1869,2.2046,2.2055,2.2064,2.2178,0,0,2.2094,2.2098,0,0,0,0,0,0,0,0,2.1535,2.1554,2.1716,2.1721,2.1726,2.1843,2.1822,2.1968,2.1878,2.182,2.1871,2.1868,2.1984,2.1999,2.2036,2.2186,2.2194,2.2095,2.2101,2.2105,2.2108,0,0,0,0,0,0,0,2.1525,2.1547,2.1758,2.1718,2.1724,2.1732,2.1749,2.185,2.1916,2.1825,2.1826,2.1845,2.1986,2.2027,2.204,2.2196,2.2095,2.2103,2.2109,2.2113,2.2453,2.2456,0,0,0,0,0,0,2.1508,2.1538,2.1752,2.1763,2.1621,2.174,2.1759,2.1808,2.1914,2.1928,2.1847,2.1845,2.2011,2.2029,2.2047,2.2188,2.2105,2.2114,2.2119,2.245,2.2454,2.2457,0,0,0,0,0,0,2.1501,2.1527,2.1746,2.1651,2.1679,2.1747,2.1803,2.1813,2.1853,2.1931,2.1944,2.1876,2.201,2.2033,2.2145,2.2195,2.2118,2.2127,2.2446,2.2451,2.2455,2.2471,0,0,0,0,0,0,2.1493,2.1524,2.1565,2.1652,2.1684,2.1838,2.1806,2.1818,2.1868,2.1867,2.1961,2.1974,2.201,2.2131,2.2155,2.2207,2.2135,2.2442,2.2448,2.2454,2.2467,2.2476,2.2484,0,0,0,0,0,2.1482,2.1564,2.1567,2.1592,2.1736,2.184,2.186,2.1896,2.1872,2.1916,2.1967,2.1971,2.2185,2.2142,2.2169,2.2225,2.2439,2.2446,2.2453,2.2463,2.2474,2.2484,0,0,0,0,0,0,2.1483,2.1576,2.158,2.1691,2.1757,2.1842,2.1898,2.1906,2.1983,2.1979,2.2025,2.2046,2.2157,2.2203,2.2153,2.2343,2.231,2.2323,2.2308,2.232,2.2328,2.2315,2.2143,0,0,0,0,0,2.1496,2.157,2.1648,2.1739,2.1772,2.1829,2.1876,2.1899,2.1971,2.2,2.2059,2.2132,2.2216,2.2271,2.2352,2.2474,2.2497,2.2526,2.2535,2.2542,2.2553,2.2624,2.2639,2.2481,2.2481,2.2481,0,0,2.1524,2.1583,2.1627,2.1741,2.1795,2.1874,2.1853,2.1937,2.1998,2.2014,2.2123,2.2169,2.2254,2.2372,2.2427,2.2414,2.2602,2.2551,2.2556,2.2563,2.2633,2.2648,2.2661,2.2486,2.2485,2.2484,0,0,2.1615,2.1666,2.1748,2.1803,2.1885,2.1923,2.1943,2.2028,2.2059,2.2169,2.2184,2.2259,2.2402,2.2462,2.2512,2.2631,2.2639,2.2657,2.2702,2.2772,2.2784,2.2795,2.284,2.2855,2.2667,2.2667,2.2667,0,2.164,2.1756,2.1791,2.1875,2.1926,2.1942,2.2029,2.2082,2.2188,2.2225,2.2207,2.2389,2.2447,2.2581,2.261,2.2649,2.2677,2.2646,2.2779,2.2791,2.2802,2.2845,2.2862,2.2669,2.2669,2.2669,2.2668,0,2.1784,2.1865,2.1923,2.2022,2.208,2.2165,2.2217,2.2272,2.2291,2.2332,2.2447,2.2518,2.2615,2.2649,2.2669,2.2788,2.2777,2.2769,2.2737,2.2818,2.286,2.2876,2.2671,2.2671,2.267,2.267,0,0,2.1878,2.1997,2.2017,2.2064,2.2157,2.2223,2.2311,2.2404,2.2452,2.2526,2.2604,2.2726,2.272,2.2776,2.2804,2.2864,2.2958,2.285,2.2852,2.2869,2.3097,2.3103,2.3121,2.2964,2.2967,2.297,2.3091,0,2.1981,2.2133,2.2169,2.2303,2.2381,2.24,2.2477,2.2546,2.2588,2.2664,2.2712,2.2799,2.2783,2.2817,2.2878,2.2933,2.3004,2.2925,2.304,2.3044,2.3018,2.3143,2.3149,2.3259,2.3107,2.311,2.3112,0,2.212,2.2194,2.2335,2.2421,2.2455,2.2523,2.2614,2.2684,2.2764,2.2792,2.2856,2.2878,2.2976,2.2939,2.3077,2.3022,2.3072,2.3107,2.3112,2.3125,2.3083,2.316,2.3295,2.3312,2.3137,2.3135,2.3133,0,2.2176,2.2313,2.2415,2.2454,2.2557,2.2605,2.2651,2.2728,2.2783,2.2863,2.29,2.2992,2.3043,2.3115,2.3164,2.3132,2.3299,2.3266,2.3327,2.3326,2.3361,2.3358,2.3507,2.3392,2.3392,2.3391,2.3391,0,2.2287,2.2373,2.2442,2.2505,2.2603,2.2646,2.2744,2.2791,2.286,2.2936,2.2959,2.3031,2.3089,2.3171,2.321,2.3319,2.3342,2.337,2.3379,2.3368,2.3365,2.3401,2.3396,2.3396,2.3395,2.3394,2.3393,0,2.2367,2.2416,2.2529,2.2617,2.2642,2.2711,2.2788,2.2853,2.2897,2.2993,2.3018,2.3089,2.3186,2.3241,2.3364,2.339,2.3513,2.3518,2.3485,2.3489,2.3548,2.3542,2.3726,2.3754,2.3619,2.362,2.3621,0,2.2434,2.2501,2.2596,2.2647,2.2693,2.2775,2.2831,2.2878,2.2936,2.3034,2.3088,2.3186,2.3266,2.3422,2.3486,2.3582,2.3591,2.3649,2.3605,2.3593,2.3594,2.3589,2.3598,2.3656,2.3657,2.3658,2.3659,0,2.255,2.2572,2.265,2.2738,2.2803,2.2876,2.2947,2.2989,2.3049,2.3114,2.3212,2.3275,2.34,2.3498,2.3599,2.3651,2.3667,2.3672,2.3692,2.3681,2.366,2.3674,2.3506,2.3668,2.3667,2.3666,2.3666,2.3665,2.2627,2.2688,2.2765,2.2853,2.2912,2.2979,2.3044,2.3097,2.3178,2.3282,2.3306,2.341,2.3494,2.363,2.3685,2.3771,2.3761,2.3788,2.3796,2.3802,2.3805,2.3645,2.3789,2.3789,2.3789,2.3789,2.3789,0,2.2746,2.2797,2.2877,2.2976,2.3046,2.3052,2.3133,2.3192,2.3282,2.3357,2.3436,2.3551,2.3648,2.3721,2.3821,2.3875,2.3885,2.39,2.3897,2.391,2.3807,2.3781,2.3891,2.3891,2.3891,2.3891,2.3891,2.3891,2.2815,2.292,2.2951,2.3087,2.3139,2.3238,2.3285,2.3349,2.3409,2.3535,2.3615,2.3661,2.3737,2.3843,2.3933,2.3953,2.399,2.4004,2.4025,2.3927,2.3917,2.3906,2.3882,2.4011,2.4011,2.412,2.4121,2.4122]},{"header":{"parameterUnit":"m.s-1","parameterCategory":1,"la1":30.2991,"la2":30.254,"lo1":-89.0895,"lo2":-89.0444,"dy":0.0017,"dx":0.0017,"nx":28,"ny":28,"refTime":"2023-09-07T21:00:00:Z","depth":0,"parameterNumber":3,"parameterNumberName":"V-component_of_WINDS"},"data":[0,0,0,0,0,0,0,0,0,0,0,0,0,0,0,0,0,0,0,0,0,0,0,0,0,0,0,0,0,0,0,0,0,0,0,0,0,0,0,0,0,0,0,0,0,0,0,0,0,0,0,0,0,0,0,0,0,0,0.934,0.9342,0,0.9524,0.9526,0.9528,0.9506,0.9503,0.95,0.9497,0.9686,0.9693,0.9701,0,0,0,0,0,0,0,0,0,0,0,0,0,0.8964,0.8971,0.934,0.9342,0.9345,0.9524,0.9526,0.9529,0.9507,0.9503,0.9499,0.9496,0.9683,0.9692,0.9702,0,0,0,0,0,0,0,0,0,0,0,0,0,0.9136,0.8974,0.934,0.9355,0.9358,0.9523,0.9527,0.953,0.9507,0.9503,0.9498,0.9494,0.968,0.9691,0.9703,0.9864,0,0,0.9739,0.9744,0,0,0,0,0,0,0,0,0.9126,0.915,0.935,0.9354,0.9358,0.9488,0.9463,0.9642,0.9509,0.9451,0.9497,0.9492,0.9623,0.9639,0.9684,0.9873,0.9881,0.974,0.9747,0.9752,0.9755,0,0,0,0,0,0,0,0.9114,0.9142,0.9413,0.9353,0.9358,0.9351,0.9371,0.9497,0.956,0.9455,0.9454,0.9476,0.9625,0.9673,0.9688,0.9884,0.9739,0.975,0.9757,0.9761,1.0208,1.0213,0,0,0,0,0,0,0.9099,0.9132,0.9407,0.9418,0.9229,0.9362,0.9383,0.9451,0.9558,0.9571,0.948,0.9475,0.9655,0.9674,0.9695,0.9886,0.9752,0.9763,0.9769,1.0203,1.0209,1.0214,0,0,0,0,0,0,0.9091,0.9124,0.94,0.9275,0.9309,0.9373,0.9448,0.9457,0.9505,0.9577,0.9588,0.9518,0.9652,0.9678,0.9821,0.9893,0.9768,0.9779,1.0198,1.0205,1.0212,1.0274,0,0,0,0,0,0,0.908,0.9121,0.9185,0.9277,0.9316,0.9525,0.9453,0.9463,0.9525,0.952,0.9615,0.9627,0.9651,0.9803,0.9832,0.9907,0.9788,1.0191,1.0201,1.0209,1.0266,1.0282,1.0297,0,0,0,0,0,0.9067,0.9196,0.9188,0.9221,0.9397,0.9529,0.9551,0.9576,0.9531,0.9594,0.9639,0.9624,0.988,0.9818,0.9851,0.9929,1.0187,1.0198,1.0209,1.0259,1.0279,1.0296,0,0,0,0,0,0,0.9113,0.9209,0.9201,0.9364,0.9438,0.9525,0.9606,0.9598,0.9687,0.9678,0.9705,0.9727,0.987,0.9914,0.9843,1.0088,1.0027,1.0045,1.0054,1.0074,1.0089,1.0075,0.9797,0,0,0,0,0,0.9141,0.9241,0.9319,0.9455,0.9493,0.9543,0.9601,0.9613,0.9691,0.9723,0.9779,0.9855,0.9952,1.0015,1.0109,1.0272,1.029,1.0341,1.0357,1.0369,1.0384,1.0467,1.049,1.025,1.025,1.025,0,0,0.9202,0.9267,0.9329,0.9466,0.9525,0.9625,0.957,0.968,0.9754,0.974,0.9877,0.992,1.0006,1.0158,1.0227,1.0199,1.0453,1.0383,1.0392,1.0401,1.0481,1.0503,1.0523,1.0258,1.0256,1.0255,0,0,0.9364,0.9425,0.9542,0.9601,0.9691,0.9722,0.975,0.9837,0.9865,1.0002,0.9992,1.0079,1.0248,1.0308,1.036,1.0538,1.0525,1.0567,1.0648,1.0729,1.0748,1.0765,1.0824,1.0846,1.0582,1.0582,1.0583,0,0.9429,0.9581,0.9604,0.9714,0.9772,0.9762,0.9879,0.9935,1.0051,1.0091,1.0057,1.0263,1.0321,1.0484,1.0526,1.0571,1.06,1.0557,1.0744,1.0761,1.0777,1.0833,1.0856,1.0587,1.0586,1.0586,1.0585,0,0.9653,0.9759,0.9843,0.9952,1.002,1.0134,1.0171,1.0237,1.0241,1.0275,1.0412,1.048,1.0585,1.0624,1.0632,1.0787,1.0765,1.0738,1.0677,1.0803,1.0857,1.0879,1.0593,1.0591,1.059,1.0589,0,0,0.9853,0.9969,0.9999,1.0046,1.0141,1.0222,1.0332,1.0434,1.0487,1.0566,1.0657,1.0796,1.0769,1.0829,1.0841,1.0913,1.1043,1.0875,1.0878,1.0901,1.1213,1.1231,1.1257,1.1035,1.1039,1.1043,1.1204,0,1.0021,1.0217,1.0238,1.0412,1.0506,1.0495,1.059,1.0657,1.0691,1.0774,1.081,1.0907,1.0866,1.0901,1.0971,1.1013,1.1106,1.1001,1.1117,1.1121,1.1094,1.1285,1.1307,1.1456,1.1226,1.1229,1.1232,0,1.0246,1.0328,1.051,1.0586,1.0627,1.0713,1.0804,1.0885,1.0959,1.0977,1.1041,1.1043,1.1153,1.1087,1.1237,1.1166,1.1213,1.124,1.1246,1.1257,1.1183,1.1298,1.1505,1.1526,1.1266,1.1263,1.1261,0,1.0367,1.0524,1.0652,1.0693,1.0787,1.0846,1.0888,1.0957,1.1014,1.1094,1.113,1.1222,1.1271,1.1341,1.1365,1.1316,1.1512,1.1451,1.1528,1.1527,1.157,1.1567,1.1785,1.1605,1.1604,1.1604,1.1603,0,1.0553,1.0664,1.0707,1.0786,1.0909,1.093,1.105,1.1089,1.1149,1.1233,1.1229,1.1308,1.1337,1.1419,1.1439,1.1557,1.158,1.1596,1.16,1.1596,1.1593,1.1626,1.1616,1.161,1.1608,1.1607,1.1606,0,1.071,1.0744,1.0882,1.0958,1.0979,1.1066,1.1129,1.1203,1.1233,1.1339,1.1365,1.1412,1.1507,1.1539,1.1656,1.1668,1.1805,1.1801,1.178,1.178,1.1855,1.1846,1.21,1.2133,1.1934,1.1936,1.1937,0,1.0826,1.091,1.0993,1.1049,1.1092,1.1182,1.1239,1.1262,1.1321,1.1408,1.1471,1.1565,1.1642,1.1795,1.1838,1.1926,1.1922,1.2005,1.1935,1.1926,1.1919,1.1913,1.1919,1.2018,1.202,1.2021,1.2023,0,1.1025,1.1036,1.112,1.1207,1.1275,1.1346,1.1414,1.1459,1.149,1.1557,1.1654,1.1713,1.183,1.1922,1.201,1.205,1.2041,1.2044,1.2066,1.2062,1.2045,1.2051,1.1813,1.2038,1.2037,1.2036,1.2035,1.2034,1.1163,1.1236,1.1304,1.1395,1.1448,1.151,1.1581,1.1619,1.17,1.1796,1.1804,1.1908,1.1973,1.209,1.2134,1.2213,1.219,1.2223,1.2231,1.2238,1.2242,1.2033,1.223,1.223,1.2229,1.2229,1.2229,0,1.1359,1.1401,1.1485,1.1578,1.1649,1.1633,1.1705,1.1765,1.1856,1.1918,1.1992,1.2101,1.2189,1.2237,1.2324,1.2378,1.2375,1.24,1.2395,1.2403,1.226,1.2231,1.24,1.24,1.24,1.24,1.24,1.24,1.147,1.159,1.1608,1.1753,1.1794,1.1895,1.1937,1.1992,1.2041,1.2162,1.2235,1.2266,1.2321,1.2411,1.2489,1.2501,1.2532,1.2558,1.2567,1.2432,1.2414,1.2397,1.237,1.2565,1.2566,1.2703,1.2704,1.2705]}]]